Powrót do katalogu

FENGYUN 1C DEB

AktywnySSO
NORAD 30036·DEBRIS·🇨🇳 China

Wystrzelony May 10, 1999 z Taiyuan Satellite Launch Center

Loading…

Następne Przeloty (najbliższe 24 godziny)

TLE

ŚwieżeSource: Space-Track

Epoka: Sep 14, 2026, 00:46 UTC

1 30036U 99025NM  26257.03195454  .00001402  00000-0  31824-3 0  9998
2 30036  98.2295 281.8399 0189201  87.9343 303.5402 14.47110483 31547

Śledź FENGYUN 1C DEB w czasie rzeczywistym z AllMySat

Download on the App Store